UPS805 KSDF-KATL

Flight info

Callsign UPS805
Flight time N/A
Altitude 38000
Route HIDEY1 RAMRD BNA/N0483F390 NEWBB IHAVE MTHEW CHPPR1
Aircraft B748/H-SDE3FGHIM1M2RWXY/LB1

Departure

Time 2026-04-29 20:09
Airport Louisville Muhammad Ali International Airport (KSDF)

Arrival

Time N/A
Airport Hartsfield Jackson Atlanta International Airport (KATL)
Time Latitude Longitude Altitude Speed Heading
2026-04-29 19:59 38.16682 -85.73600 475 ft 0 kts 200°
2026-04-29 20:00 38.16691 -85.73595 475 ft 1 kts 207°
2026-04-29 20:00 38.16698 -85.73583 475 ft 1 kts 268°
2026-04-29 20:00 38.16693 -85.73569 475 ft 0 kts 306°
2026-04-29 20:01 38.16698 -85.73577 475 ft 2 kts 306°
2026-04-29 20:01 38.16710 -85.73595 475 ft 3 kts 314°
2026-04-29 20:01 38.16734 -85.73628 475 ft 7 kts 308°
2026-04-29 20:01 38.16762 -85.73695 475 ft 10 kts 287°
2026-04-29 20:02 38.16786 -85.73792 475 ft 12 kts 288°
2026-04-29 20:02 38.16818 -85.73897 475 ft 13 kts 299°
2026-04-29 20:02 38.16856 -85.74000 475 ft 12 kts 275°
2026-04-29 20:02 38.16840 -85.74069 475 ft 12 kts 223°
2026-04-29 20:03 38.16731 -85.74071 473 ft 12 kts 165°
2026-04-29 20:03 38.16642 -85.74040 472 ft 14 kts 165°
2026-04-29 20:03 38.16542 -85.74002 472 ft 15 kts 161°
2026-04-29 20:03 38.16433 -85.73956 470 ft 18 kts 164°
2026-04-29 20:04 38.16304 -85.73917 469 ft 20 kts 166°
2026-04-29 20:04 38.16158 -85.73873 468 ft 22 kts 167°
2026-04-29 20:04 38.16001 -85.73818 466 ft 24 kts 162°
2026-04-29 20:04 38.15913 -85.73789 466 ft 6 kts 173°
2026-04-29 20:05 38.15911 -85.73789 466 ft 0 kts 173°
2026-04-29 20:06 38.15910 -85.73788 466 ft 0 kts 173°
2026-04-29 20:06 38.15898 -85.73789 466 ft 3 kts 191°
2026-04-29 20:06 38.15864 -85.73814 466 ft 7 kts 224°
2026-04-29 20:07 38.15842 -85.73872 465 ft 8 kts 268°
2026-04-29 20:07 38.15869 -85.73931 465 ft 6 kts 334°
2026-04-29 20:07 38.15871 -85.73933 465 ft 0 kts 335°
2026-04-29 20:07 38.15876 -85.73936 465 ft 1 kts 335°
2026-04-29 20:08 38.15890 -85.73944 465 ft 3 kts 335°
2026-04-29 20:08 38.15905 -85.73953 465 ft 4 kts 335°
2026-04-29 20:08 38.15964 -85.73984 465 ft 12 kts 339°
2026-04-29 20:08 38.16174 -85.74062 466 ft 64 kts 345°
2026-04-29 20:09 38.16768 -85.74258 474 ft 120 kts 347°
2026-04-29 20:09 38.17726 -85.74585 513 ft 164 kts 341°
2026-04-29 20:09 38.18864 -85.75066 940 ft 172 kts 333°
2026-04-29 20:09 38.19939 -85.75743 1646 ft 181 kts 330°
2026-04-29 20:10 38.21050 -85.76486 2502 ft 184 kts 329°
2026-04-29 20:10 38.22210 -85.77258 3122 ft 194 kts 330°
2026-04-29 20:10 38.23441 -85.78078 3649 ft 211 kts 330°
2026-04-29 20:10 38.24795 -85.78981 4175 ft 230 kts 330°
2026-04-29 20:11 38.26260 -85.79958 4764 ft 249 kts 330°
2026-04-29 20:11 38.27713 -85.81217 5569 ft 257 kts 311°
2026-04-29 20:11 38.28615 -85.83127 6529 ft 258 kts 286°
2026-04-29 20:11 38.28706 -85.85353 7529 ft 260 kts 262°
2026-04-29 20:12 38.28385 -85.87594 8544 ft 260 kts 263°
2026-04-29 20:12 38.27823 -85.89754 9526 ft 263 kts 242°
2026-04-29 20:12 38.26591 -85.91515 9919 ft 275 kts 220°
2026-04-29 20:12 38.24966 -85.92898 10000 ft 278 kts 220°
2026-04-29 20:13 38.23376 -85.94365 10337 ft 286 kts 223°
2026-04-29 20:13 38.21751 -85.95952 10712 ft 303 kts 223°
2026-04-29 20:13 38.19829 -85.97365 11028 ft 332 kts 211°
2026-04-29 20:13 38.17596 -85.98661 11382 ft 356 kts 211°
2026-04-29 20:14 38.15276 -86.00053 11873 ft 374 kts 212°
2026-04-29 20:14 38.12841 -86.01523 12642 ft 384 kts 212°
2026-04-29 20:14 38.10343 -86.03034 13597 ft 387 kts 213°
2026-04-29 20:14 38.07837 -86.04548 14605 ft 389 kts 213°
2026-04-29 20:15 38.05232 -86.05946 15533 ft 397 kts 206°
2026-04-29 20:15 38.02512 -86.07050 16441 ft 401 kts 206°
2026-04-29 20:15 37.99806 -86.08149 17299 ft 405 kts 207°
2026-04-29 20:15 37.97026 -86.09287 18187 ft 407 kts 207°
2026-04-29 20:16 37.94218 -86.10443 19006 ft 410 kts 207°
2026-04-29 20:16 37.91405 -86.11605 19762 ft 415 kts 207°
2026-04-29 20:16 37.88591 -86.12769 20496 ft 419 kts 207°
2026-04-29 20:16 37.85706 -86.13956 21250 ft 422 kts 207°
2026-04-29 20:17 37.82798 -86.15154 21956 ft 426 kts 207°
2026-04-29 20:17 37.79886 -86.16352 22694 ft 428 kts 207°
2026-04-29 20:17 37.76937 -86.17564 23380 ft 432 kts 208°
2026-04-29 20:17 37.74005 -86.18771 23977 ft 437 kts 208°
2026-04-29 20:18 37.71036 -86.19990 24702 ft 438 kts 208°
2026-04-29 20:18 37.68054 -86.21212 25412 ft 439 kts 208°
2026-04-29 20:18 37.65116 -86.22416 26071 ft 441 kts 208°
2026-04-29 20:18 37.62106 -86.23650 26617 ft 445 kts 208°
2026-04-29 20:19 37.59129 -86.24869 27189 ft 448 kts 208°
2026-04-29 20:19 37.56158 -86.26087 27701 ft 452 kts 208°
2026-04-29 20:19 37.53164 -86.27308 28361 ft 452 kts 208°
2026-04-29 20:19 37.50130 -86.28546 28965 ft 453 kts 209°
2026-04-29 20:20 37.47100 -86.29784 29479 ft 456 kts 209°
2026-04-29 20:20 37.44085 -86.31018 29957 ft 459 kts 209°
2026-04-29 20:20 37.40908 -86.32033 30390 ft 472 kts 204°
2026-04-29 20:20 37.37656 -86.32864 30784 ft 478 kts 202°
2026-04-29 20:21 37.34346 -86.33694 31205 ft 482 kts 203°
2026-04-29 20:21 37.31094 -86.34518 31674 ft 484 kts 203°
2026-04-29 20:21 37.27773 -86.35364 32290 ft 483 kts 204°
2026-04-29 20:21 37.24481 -86.36203 33031 ft 478 kts 204°
2026-04-29 20:22 37.21288 -86.37016 33847 ft 471 kts 204°
2026-04-29 20:22 37.18094 -86.37830 34582 ft 464 kts 205°
2026-04-29 20:22 37.14954 -86.38636 35148 ft 460 kts 205°
2026-04-29 20:22 37.11836 -86.39442 35790 ft 460 kts 205°
2026-04-29 20:23 37.09120 -86.40151 36142 ft 461 kts 205°
2026-04-29 20:23 37.05578 -86.41073 36509 ft 464 kts 205°
2026-04-29 20:23 37.02422 -86.41890 36862 ft 465 kts 205°
2026-04-29 20:23 36.99049 -86.42762 37257 ft 467 kts 205°
2026-04-29 20:24 36.95861 -86.43556 37720 ft 467 kts 204°
2026-04-29 20:24 36.92675 -86.44357 37943 ft 467 kts 206°